Weather History for KPKD - July, 2013

Change the Weather History Date:

Sunday, July 21, 2013

  Actual Average Record
Temperature  
Mean Temperature 66 °F -  
Max Temperature 80 °F 81 °F 96 °F (1960)
Min Temperature 52 °F 55 °F 44 °F (2000)
Cooling Degree Days 1    
Growing Degree Days 16 (Base 50)    
Moisture  
Dew Point 56 °F    
Average Humidity 66    
Maximum Humidity 93    
Minimum Humidity 48    
Precipitation  
Precipitation 0.00 in - - ()
Sea Level Pressure  
Sea Level Pressure 29.88 in    
Wind  
Wind Speed 6 mph (SSE)    
Max Wind Speed 14 mph    
Max Gust Speed 20 mph    
Visibility 10 miles    
Events      
Averages and records for this station are not official NWS values.
T = Trace of Precipitation, MM = Missing Value Source: NWS Daily Summary

Daily Weather History Graph

Daily Weather History Graph

Search for Another Location

Airport or City:

Trip Planner

Search our weather history database for the weather conditions in past years. The results will help you decide how hot, cold, wet, or windy it might be!

Date:

Astronomy

Jul. 21, 2013 Rise Set
Actual Time 5:47 AM CDT 9:05 PM CDT
Civil Twilight 5:10 AM CDT 9:42 PM CDT
Nautical Twilight 4:21 AM CDT 10:30 PM CDT
Astronomical Twilight 3:20 AM CDT 11:31 PM CDT
Moon 8:00 PM CDT (7/21) 4:35 AM CDT (7/21)
Length of Visible Light 16h 31m
Length of Day
15h 17m
Waxing Gibbous, 98% of the Moon is Illuminated
Jul 21
Waxing Gibbous
Jul 22
Full
Jul 29
Last Quarter
Aug 6
New
Aug 14
First Quarter

Hourly Weather History & Observations

Time (CDT) Temp. Heat Index Dew Point Humidity Pressure Visibility Wind Dir Wind Speed Gust Speed Precip Events Conditions
12:53 AM 52.0 °F - 48.9 °F 89% 29.99 in 10.0 mi Calm Calm - N/A   Clear
1:53 AM 53.1 °F - 51.1 °F 93% 29.98 in 10.0 mi Calm Calm - N/A   Clear
2:53 AM 55.9 °F - 52.0 °F 87% 29.95 in 10.0 mi NE 3.5 mph - N/A   Clear
3:53 AM 55.9 °F - 51.1 °F 84% 29.96 in 10.0 mi Calm Calm - N/A   Overcast
4:53 AM 60.1 °F - 54.0 °F 80% 29.95 in 10.0 mi ESE 4.6 mph - N/A   Overcast
5:53 AM 60.1 °F - 53.1 °F 78% 29.95 in 10.0 mi SE 3.5 mph - N/A   Overcast
6:53 AM 61.0 °F - 52.0 °F 72% 29.95 in 10.0 mi SE 6.9 mph - N/A   Overcast
7:53 AM 63.0 °F - 52.0 °F 67% 29.94 in 10.0 mi SE 8.1 mph - N/A   Overcast
8:53 AM 66.0 °F - 51.1 °F 59% 29.95 in 10.0 mi SSE 8.1 mph - N/A   Clear
9:53 AM 68.0 °F - 52.0 °F 56% 29.94 in 10.0 mi SE 11.5 mph - N/A   Clear
10:53 AM 70.0 °F - 54.0 °F 57% 29.92 in 10.0 mi SSE 9.2 mph - N/A   Clear
11:53 AM 72.0 °F - 55.0 °F 55% 29.91 in 10.0 mi SSE 11.5 mph - N/A   Clear
12:53 PM 75.0 °F - 55.9 °F 51% 29.90 in 10.0 mi SSE 12.7 mph - N/A   Scattered Clouds
1:53 PM 77.0 °F - 57.0 °F 50% 29.88 in 10.0 mi SE 8.1 mph 19.6 mph N/A   Mostly Cloudy
2:53 PM 78.1 °F - 57.0 °F 48% 29.86 in 10.0 mi South 9.2 mph - N/A   Clear
3:53 PM 79.0 °F - 57.9 °F 48% 29.85 in 10.0 mi South 11.5 mph 17.3 mph N/A   Mostly Cloudy
4:53 PM 80.1 °F 80.7 °F 59.0 °F 48% 29.82 in 10.0 mi SSE 13.8 mph - N/A   Mostly Cloudy
5:53 PM 79.0 °F - 61.0 °F 54% 29.80 in 10.0 mi South 11.5 mph - N/A   Scattered Clouds
6:53 PM 78.1 °F - 61.0 °F 56% 29.78 in 10.0 mi SSE 12.7 mph - N/A   Partly Cloudy
7:53 PM 75.9 °F - 62.1 °F 62% 29.78 in 10.0 mi South 8.1 mph - N/A   Clear
8:53 PM 73.9 °F - 63.0 °F 68% 29.74 in 10.0 mi SSE 12.7 mph - N/A   Clear
9:53 PM 72.0 °F - 63.0 °F 73% 29.77 in 10.0 mi SSE 8.1 mph - N/A   Clear
10:53 PM 70.0 °F - 63.0 °F 78% 29.74 in 10.0 mi SSE 10.4 mph - N/A   Clear
11:53 PM 70.0 °F - 64.0 °F 81% 29.73 in 10.0 mi SSE 10.4 mph - N/A   Clear